Regional Weather Roundup
Issued by NWS

Home | Current Version | Previous Version | Text Only | Print | Product List | Glossary Off
Versions: 1 2 3 4 5 6 7 8 9 10 11 12 13 14 15 16 17 18 19 20 21 22 23 24 25 26 27 28 29 30 31 32 33 34 35 36 37 38 39 40 41 42 43 44 45 46 47 48 49 50

000
ASUS43 KLMK 020010
RWRKY
KENTUCKY REGIONAL WEATHER ROUNDUP
NATIONAL WEATHER SERVICE LOUISVILLE KY
800 PM EDT MON SEP 01 2014

NOTE "FAIR" INDICATES FEW OR NO CLOUDS BELOW 12,000 FEET
WITH NO SIGNIFICANT WEATHER AND/OR OBSTRUCTIONS TO VISIBILITY.

KYZ001>023-026-027-061>063-070>075-020100-
WESTERN AND SOUTH CENTRAL KENTUCKY

CITY           SKY/WX    TMP DP  RH WIND       PRES   REMARKS
PADUCAH        CLEAR     85  72  65 SW5       29.94R HX  91
HENDERSON      PTCLDY    82  72  69 SW3       29.94S
OWENSBORO      PTCLDY    81  73  78 SW7       29.96S
HOPKINSVILLE   PTCLDY    83  73  70 SW6       29.98R
BOWLING GREEN  MOCLDY    84  68  58 SW7       29.98R
GLASGOW        MOCLDY    80  69  67 CALM      29.99S
$$

KYZ024-025-028>034-038-045-046-053-020100-
NORTH CENTRAL KENTUCKY

CITY           SKY/WX    TMP DP  RH WIND       PRES   REMARKS
LOUISVILLE/SDF MOCLDY    83  71  67 SW10      29.95F
LOUISVILLE/LOU MOCLDY    83  71  67 SW10      29.96S
FORT KNOX      MOCLDY    79  71  77 S7        29.97S
$$

KYZ035>037-039>044-047>052-055>060-089>105-020100-
NORTHEAST KENTUCKY

CITY           SKY/WX    TMP DP  RH WIND       PRES   REMARKS
LEXINGTON      CLOUDY    80  72  76 SW7       30.00R
COVINGTON      CLOUDY    81  71  71 SW8       29.94S
FRANKFORT      MOCLDY    80  72  76 SW6       29.97R
$$

KYZ054-064>069-076>088-106>120-020100-
SOUTHEAST KENTUCKY

CITY           SKY/WX    TMP DP  RH WIND       PRES   REMARKS
JACKSON        MOCLDY    81  66  60 CALM      30.03S
LONDON         PTCLDY    83  67  58 SW5       30.03S
SOMERSET       CLOUDY    81  63  54 CALM      30.03R
MIDDLESBORO    PTCLDY    80  71  74 SW3       30.05S
MONTICELLO     PTCLDY    78  71  79 CALM      30.04R
$$



USA.gov is the U.S. government's official web portal to all federal, state and local government web resources and services.